Today is:



Torrelavega more information Torrelavega


Meteosat more information blitzortung!


Radar lluvias more information rain snow radar


Visita nuestra red de sitios de meteo:

Documentation for the template used

Website of another weatherstation

MeteoibericaRed estaciones Meteorologicas

PaypalWebsite Paypal



Sin Advertencias climatologicas en Cantabria.En este momento tenemos Nivel Verde.    No hay Alarmas

Select another period ( hide this area )

Unidades Período Custom range Directly to
Métrico impérial Tanto
Diario Semana Mensual Anual
use both date-selectors for a custom range
previous Dia
With this date

WeatherUnderground graphs for this period ( click here )


Diario Resumen Viernes 23 Agosto 2019
Tiempo Temp. ( °C ) Dew pt. ( °C ) Viento ( km/h ) desde Ráfagas ( km/h ) Pression baro ( hPa ) Humid.( % ) Rainrate ( cm )
Alto18,2 16,7 1,6 S ( 2/2 ) 8,0 1014,9 97 -
Media16,4 15,7 0,0 calma #62/63 0,6 1013,9 95 -
Baja15,1 14,6 -   0,0 1012,9 90 -
Diario Tabular details for Viernes 23 Agosto 2019
Tiempo Temp. ( °C ) Dew pt. ( °C ) Viento ( km/h ) desde Ráfagas ( km/h ) Pression baro ( hPa ) Humid.( % ) Rainrate ( cm )
00:00 18,2 16,6   calma 1,6 1014,9 90 -
00:05 18,0 16,7   calma   1014,9 92 -
00:10 17,9 16,6   calma   1014,9 92 -
00:15 17,8 16,3   calma   1014,9 91 -
00:20 17,5 16,2   calma   1014,9 92 -
00:25 17,5 16,3   calma   1014,9 93 -
00:30 17,5 16,3   calma   1014,9 93 -
00:35 17,6 16,6   calma   1014,9 94 -
00:40 17,6 16,6   calma   1014,9 94 -
00:45 17,5 16,5   calma   1014,9 94 -
00:50 17,5 16,3   calma 1,6 1014,9 93 -
00:55 17,5 16,3   calma   1014,9 93 -
01:00 17,4 16,3   calma   1014,9 93 -
01:05 17,3 16,2   calma   1014,9 93 -
01:10 17,3 16,2   calma   1013,9 93 -
01:15 17,3 16,3   calma   1013,9 94 -
01:20 17,2 16,2   calma   1013,9 94 -
01:25 17,2 16,2   calma   1013,9 94 -
01:30 17,1 16,1   calma   1013,9 94 -
01:35 17,0 16,0   calma 1,6 1013,9 94 -
01:40 16,8 15,8   calma   1013,9 94 -
01:45 16,7 15,9   calma   1013,9 95 -
01:50 16,7 15,9   calma   1013,9 95 -
01:55 16,9 16,2   calma   1013,9 96 -
02:00 16,9 16,3   calma   1013,9 96 -
02:05 16,9 16,3   calma   1013,9 96 -
02:10 16,9 16,3   calma   1013,9 96 -
02:15 16,9 16,3   calma   1013,9 96 -
02:20 16,8 16,2   calma 3,2 1013,9 96 -
02:25 16,6 15,9   calma   1013,9 96 -
02:30 16,5 15,8   calma   1013,9 96 -
02:35 16,3 15,5   calma   1013,9 95 -
02:40 16,2 15,4   calma   1013,9 95 -
02:45 16,1 15,6   calma 3,2 1013,9 97 -
02:50 16,2 15,7   calma   1013,9 97 -
02:55 16,3 15,8   calma   1013,9 97 -
03:00 16,3 15,7   calma   1013,9 96 -
03:05 16,1 15,4   calma   1013,9 96 -
03:10 16,1 15,4   calma   1012,9 96 -
03:15 16,0 15,6   calma 1,6 1012,9 97 -
03:20 15,9 15,4   calma   1012,9 97 -
03:25 15,8 15,3   calma 1,6 1013,9 97 -
03:30 15,8 15,3   calma   1013,9 97 -
03:35 15,7 15,2   calma   1013,9 97 -
03:40 15,6 15,2   calma 1,6 1013,9 97 -
03:45 15,6 15,1 1,6 S 4,8 1013,9 97 -
03:50 15,5 15,0   calma 4,8 1013,9 97 -
03:55 15,5 15,0   calma 1,6 1012,9 97 -
04:00 15,4 14,9   calma   1012,9 97 -
04:05 15,4 14,9   calma   1012,9 97 -
04:10 15,3 14,8   calma 8,0 1013,9 97 -
04:15 15,2 14,7   calma   1013,9 97 -
04:20 15,3 14,8   calma   1013,9 97 -
04:25 15,3 14,8   calma   1012,9 97 -
04:30 15,3 14,8   calma   1012,9 97 -
04:35 15,2 14,7   calma 1,6 1012,9 97 -
04:40 15,2 14,7   calma   1012,9 97 -
04:45 15,2 14,7   calma   1012,9 97 -
04:50 15,2 14,7   calma   1012,9 97 -
04:55 15,2 14,7   calma   1012,9 97 -
05:00 15,2 14,7   calma   1012,9 97 -
05:05 15,2 14,7   calma   1012,9 97 -
05:10 15,1 14,6   calma   1012,9 97 -
Diario Resumen Viernes 23 Agosto 2019
Tiempo Temp. ( °C ) Dew pt. ( °C ) Viento ( km/h ) desde Ráfagas ( km/h ) Pression baro ( hPa ) Humid.( % ) Rainrate ( cm )
Alto18,2 16,7 1,6 S ( 2/2 ) 8,0 1014,9 97 -
Media16,4 15,7 0,0 calma #62/63 0,6 1013,9 95 -
Baja15,1 14,6 -   0,0 1012,9 90 -
Diario Tabular details for Viernes 23 Agosto 2019
Tiempo Temp. ( °C ) Dew pt. ( °C ) Viento ( km/h ) desde Ráfagas ( km/h ) Pression baro ( hPa ) Humid.( % ) Rainrate ( cm )
00:00 18,2 16,6   calma 1,6 1014,9 90 -
00:05 18,0 16,7   calma   1014,9 92 -
00:10 17,9 16,6   calma   1014,9 92 -
00:15 17,8 16,3   calma   1014,9 91 -
00:20 17,5 16,2   calma   1014,9 92 -
00:25 17,5 16,3   calma   1014,9 93 -
00:30 17,5 16,3   calma   1014,9 93 -
00:35 17,6 16,6   calma   1014,9 94 -
00:40 17,6 16,6   calma   1014,9 94 -
00:45 17,5 16,5   calma   1014,9 94 -
00:50 17,5 16,3   calma 1,6 1014,9 93 -
00:55 17,5 16,3   calma   1014,9 93 -
01:00 17,4 16,3   calma   1014,9 93 -
01:05 17,3 16,2   calma   1014,9 93 -
01:10 17,3 16,2   calma   1013,9 93 -
01:15 17,3 16,3   calma   1013,9 94 -
01:20 17,2 16,2   calma   1013,9 94 -
01:25 17,2 16,2   calma   1013,9 94 -
01:30 17,1 16,1   calma   1013,9 94 -
01:35 17,0 16,0   calma 1,6 1013,9 94 -
01:40 16,8 15,8   calma   1013,9 94 -
01:45 16,7 15,9   calma   1013,9 95 -
01:50 16,7 15,9   calma   1013,9 95 -
01:55 16,9 16,2   calma   1013,9 96 -
02:00 16,9 16,3   calma   1013,9 96 -
02:05 16,9 16,3   calma   1013,9 96 -
02:10 16,9 16,3   calma   1013,9 96 -
02:15 16,9 16,3   calma   1013,9 96 -
02:20 16,8 16,2   calma 3,2 1013,9 96 -
02:25 16,6 15,9   calma   1013,9 96 -
02:30 16,5 15,8   calma   1013,9 96 -
02:35 16,3 15,5   calma   1013,9 95 -
02:40 16,2 15,4   calma   1013,9 95 -
02:45 16,1 15,6   calma 3,2 1013,9 97 -
02:50 16,2 15,7   calma   1013,9 97 -
02:55 16,3 15,8   calma   1013,9 97 -
03:00 16,3 15,7   calma   1013,9 96 -
03:05 16,1 15,4   calma   1013,9 96 -
03:10 16,1 15,4   calma   1012,9 96 -
03:15 16,0 15,6   calma 1,6 1012,9 97 -
03:20 15,9 15,4   calma   1012,9 97 -
03:25 15,8 15,3   calma 1,6 1013,9 97 -
03:30 15,8 15,3   calma   1013,9 97 -
03:35 15,7 15,2   calma   1013,9 97 -
03:40 15,6 15,2   calma 1,6 1013,9 97 -
03:45 15,6 15,1 1,6 S 4,8 1013,9 97 -
03:50 15,5 15,0   calma 4,8 1013,9 97 -
03:55 15,5 15,0   calma 1,6 1012,9 97 -
04:00 15,4 14,9   calma   1012,9 97 -
04:05 15,4 14,9   calma   1012,9 97 -
04:10 15,3 14,8   calma 8,0 1013,9 97 -
04:15 15,2 14,7   calma   1013,9 97 -
04:20 15,3 14,8   calma   1013,9 97 -
04:25 15,3 14,8   calma   1012,9 97 -
04:30 15,3 14,8   calma   1012,9 97 -
04:35 15,2 14,7   calma 1,6 1012,9 97 -
04:40 15,2 14,7   calma   1012,9 97 -
04:45 15,2 14,7   calma   1012,9 97 -
04:50 15,2 14,7   calma   1012,9 97 -
04:55 15,2 14,7   calma   1012,9 97 -
05:00 15,2 14,7   calma   1012,9 97 -
05:05 15,2 14,7   calma   1012,9 97 -
05:10 15,1 14,6   calma   1012,9 97 -

Download your copy of this data-set  here

Our weather-data as stored at Weather Underground. Guión original por Jim McMurry. Adaptado para la plantilla por Leuven-Template.eu

Usted encontrará nuestra información del tiempo también en:

UK Metoffice

WeatherCloud

Weather Underground

AWEKAS

Citizen Weather Observer Program (CWOP)

HAMweather, WeatherForYou, PWS Weather

Tiempo Vistazo

Equipo utilizado:

Weather-program
Weather Display

Weather-server
My Computer

Proveedor
My provider

Weather Display

My Computer

My provider